Terminal Aerodrome Forecast
Issued by NWS Tampa Bay Area, FL

Home | Current Version | Previous Version | Text Only | Print | Product List | Glossary On
Versions: 1 2 3 4 5 6 7 8 9 10 11 12 13 14 15 16 17 18 19 20 21 22 23 24 25 26 27 28
000
FTUS42 KTBW 021400 AAA
TAFTPA
TAF AMD
KTPA 021456Z 0215/0312 14005KT P6SM SCT030 SCT150
     FM021800 23007KT P6SM SCT045 SCT150
     FM022000 29008KT P6SM VCTS BKN050CB BKN150
     FM030100 09004KT P6SM FEW050 SCT250=

USA.gov is the U.S. government's official web portal to all federal, state and local government web resources and services.